Home   Weather   Nuuk   Past weeks

Flag for Greenland Past Weather in Nuuk, Greenland — Yesterday and Last 2 Weeks

Now
54 °F

Cool.


Feels Like: 52 °F
Forecast: 47 / 61 °F
Wind: 6 mph from Northeast

Location: Godthaab / Nuuk

Current Time: Jul 28, 2017 at 5:01:26 am

Latest Report: Jul 28, 2017 at 3:50 am


Visibility: N/A

Pressure: 29.83 "Hg

Humidity: 58%

Dew Point: 39 °F

Location of NuukLocation

Past Weather in Nuuk — Graph

°F

Nuuk Temperature Yesterday

Maximum temperature yesterday: 68 °F (at 11:50 am)
Minimum temperature yesterday: 50 °F (at 12:50 am)
Average temperature yesterday: 58 °F

High & Low Weather Summary for the Past Weeks

 TemperatureHumidityPressure
High68 °F (Jul 27, 11:50 am)100% (Jul 13, 3:50 am)29.86 "Hg (Jul 13, 3:50 am)
Low36 °F (Jul 20, 4:50 am)40% (Jul 27, 11:50 am)29.18 "Hg (Jul 16, 12:50 am)
Average48 °F76%29.63 "Hg
* Reported Jul 13 3:50 am — Jul 28 3:50 am, Nuuk. Weather by CustomWeather, © 2017

Note: Actual official high and low records may vary slightly from our data, if they occured in-between our weather recording intervals... More about our weather records

Advertising

Nuuk Weather History for the Previous 24 Hours

Scroll right to see more
 ConditionsComfort  
Time TempWeatherWind HumidityBarometerVisibility
3:50 am
Fri, Jul 28
54 °FCool.6 mph58%29.83 "HgN/A
2:50 am52 °FCool.7 mph62%29.83 "HgN/A
1:50 am50 °FCool.2 mph76%29.83 "HgN/A
12:50 am55 °FCool.7 mph63%29.83 "HgN/A
11:50 pm
Thu, Jul 27
55 °FCool.2 mph67%29.83 "HgN/A
10:50 pm55 °FCool.1 mph63%29.83 "HgN/A
9:50 pm57 °FCool.3 mph63%29.83 "HgN/A
8:50 pm63 °FSunny.3 mph45%29.83 "HgN/A
7:50 pm63 °FSunny.3 mph49%29.86 "HgN/A
6:50 pm64 °FSunny.5 mph46%29.83 "HgN/A
5:50 pm66 °FSunny.6 mph43%29.83 "HgN/A
4:50 pm63 °FPassing clouds.7 mph49%29.83 "HgN/A
3:50 pm63 °FPassing clouds.8 mph49%29.83 "HgN/A
2:50 pm61 °FPassing clouds.9 mph52%29.83 "HgN/A
1:50 pm63 °FPassing clouds.8 mph49%29.83 "HgN/A
12:50 pm66 °FPassing clouds.6 mph43%29.83 "HgN/A
11:50 am68 °FScattered clouds.3 mph40%29.83 "HgN/A
10:50 am63 °FScattered clouds.5 mph49%29.83 "HgN/A
9:50 am57 °FScattered clouds.2 mph63%29.83 "HgN/A
8:50 am59 °FScattered clouds.1 mph59%29.83 "HgN/A
7:50 am55 °FScattered clouds.2 mph67%29.83 "HgN/A
6:50 am54 °FScattered clouds.9 mph67%29.83 "HgN/A
5:50 am52 °FCool.6 mph72%29.83 "HgN/A
Weather by CustomWeather, © 2017

See weather overviewHow to use our weather pages